{"data":{"norad_id":54660,"intl_designator":"2022-166U","name":"ONEWEB-0594","alt_names":[],"object_type":"PAYLOAD","status":"ACTIVE","operator":null,"country":"UK","launch_date":"2022-12-08","launch_site_code":"AFETR","launch_vehicle":null,"mission":null,"orbit_class":"UNKNOWN","rcs_meters":null,"size_class":null,"mass_kg":null,"dimensions":null,"purposes":["comms"],"wikipedia_slug":null,"has_3d_model":false,"image_url":null,"decayed_at":null,"tle_current":{"epoch":"2026-09-20T04:51:39.282336Z","epoch_age_seconds":47753,"freshness":"FRESH","line1":"1 54660U 22166U   26263.20253799 -.00000005  00000+0 -44556-4 0  9998","line2":"2 54660  87.9281 225.0781 0001976  73.5450 286.5901 13.21824129184119","mean_motion":13.21824129,"eccentricity":0.0001976,"inclination_deg":87.9281,"raan_deg":225.0781,"arg_perigee_deg":73.545,"mean_anomaly_deg":286.5901,"bstar":-4.4556e-5,"rev_number":18411,"period_min":108.94036267059,"perigee_km":1176.2674531021,"apogee_km":1179.2535437935,"semimajor_km":7555.8974984478,"source":"CELESTRAK","updated_at":"2026-09-20T09:00:44.744825Z"}}}